When you browse on this site, cookies collect data to enhance your experience and personalize the content and advertising you see.
Visit our Privacy Policy to learn more. By continuing to use the site, you agree to this use of cookies and data.
  • En Estados Unidos
  • Lista de países
  • Para 7 días
  • Temperatura del agua
  • Mapa Satelital
  • El tiempo en el mapa
  • Informadores
  • user-avatar
    Iniciar sesión

    Tiempo cada hora Elbasan

    Hoy, 13 Diciembre, Jueves

    Tiempo Temperatura Precipitaciones Viento Presión Humedad
    00:00 +3°C° 0 mm 2 mps 738 mmHg 41%
    01:00 +3°C° 0 mm 2 mps 737 mmHg 41%
    02:00 +3°C° 0 mm 2 mps 737 mmHg 41%
    03:00 +3°C° 0 mm 2 mps 737 mmHg 41%
    04:00 +3°C° 0 mm 2 mps 737 mmHg 41%
    05:00 +3°C° 0 mm 2 mps 737 mmHg 43%
    06:00 +3°C° 0 mm 2 mps 736 mmHg 45%
    07:00 +4°C° 0 mm 2 mps 736 mmHg 46%
    08:00 +4°C° 0.1 mm 2 mps 736 mmHg 49%
    09:00 +4°C° 0.1 mm 3 mps 736 mmHg 52%
    10:00 +4°C° 0.1 mm 3 mps 736 mmHg 54%
    11:00 +5°C° 0.1 mm 3 mps 735 mmHg 57%
    12:00 +5°C° 0.1 mm 3 mps 735 mmHg 59%
    13:00 +7°C° 0 mm 3 mps 735 mmHg 63%
    14:00 +5°C° 0 mm 3 mps 735 mmHg 67%
    15:00 +5°C° 0 mm 3 mps 735 mmHg 70%
    16:00 +4°C° 0 mm 3 mps 735 mmHg 74%
    17:00 +4°C° 0 mm 3 mps 734 mmHg 76%
    18:00 +3°C° 0 mm 3 mps 734 mmHg 78%
    19:00 +3°C° 0 mm 3 mps 734 mmHg 80%
    20:00 +3°C° 0.1 mm 3 mps 734 mmHg 80%
    21:00 +3°C° 0.1 mm 3 mps 734 mmHg 80%
    22:00 +4°C° 0.1 mm 3 mps 734 mmHg 81%
    23:00 +4°C° 0.3 mm 3 mps 734 mmHg 82%

    Mañana, 14 Diciembre, Viernes

    Tiempo Temperatura Precipitaciones Viento Presión Humedad
    00:00 +4°C° 0.3 mm 3 mps 734 mmHg 83%
    01:00 +4°C° 0.3 mm 3 mps 734 mmHg 84%
    02:00 +5°C° 0.3 mm 3 mps 734 mmHg 85%
    03:00 +5°C° 0.3 mm 3 mps 734 mmHg 86%
    04:00 +5°C° 0.3 mm 3 mps 733 mmHg 87%
    05:00 +5°C° 0.2 mm 3 mps 733 mmHg 87%
    06:00 +7°C° 0.2 mm 3 mps 733 mmHg 88%
    07:00 +7°C° 0.2 mm 3 mps 733 mmHg 88%
    08:00 +8°C° 0.2 mm 3 mps 733 mmHg 87%
    09:00 +9°C° 0.2 mm 3 mps 733 mmHg 85%
    10:00 +10°C° 0.2 mm 3 mps 734 mmHg 83%
    11:00 +11°C° 0 mm 4 mps 733 mmHg 81%
    12:00 +12°C° 0 mm 4 mps 733 mmHg 79%
    13:00 +13°C° 0 mm 4 mps 733 mmHg 77%
    14:00 +12°C° 0.1 mm 4 mps 733 mmHg 80%
    15:00 +11°C° 0.1 mm 3 mps 733 mmHg 83%
    16:00 +10°C° 0.1 mm 3 mps 733 mmHg 85%
    17:00 +10°C° 0.1 mm 3 mps 733 mmHg 86%
    18:00 +10°C° 0.1 mm 3 mps 733 mmHg 86%
    19:00 +9°C° 0.1 mm 3 mps 733 mmHg 86%
    20:00 +9°C° 0 mm 3 mps 733 mmHg 86%
    21:00 +8°C° 0 mm 3 mps 733 mmHg 85%
    22:00 +8°C° 0 mm 3 mps 733 mmHg 84%
    23:00 +8°C° 0 mm 3 mps 733 mmHg 84%

    Pasado mañana, 15 Diciembre, Sábado

    Tiempo Temperatura Precipitaciones Viento Presión Humedad
    00:00 +8°C° 0 mm 3 mps 733 mmHg 84%
    01:00 +8°C° 0 mm 3 mps 733 mmHg 84%
    02:00 +8°C° 0 mm 3 mps 732 mmHg 84%
    03:00 +8°C° 0 mm 3 mps 732 mmHg 84%
    04:00 +8°C° 0 mm 3 mps 732 mmHg 84%
    05:00 +8°C° 0.1 mm 3 mps 732 mmHg 84%
    06:00 +8°C° 0.1 mm 3 mps 732 mmHg 84%
    07:00 +8°C° 0.1 mm 3 mps 732 mmHg 84%
    08:00 +9°C° 0.3 mm 3 mps 732 mmHg 83%
    09:00 +9°C° 0.3 mm 3 mps 732 mmHg 82%
    10:00 +10°C° 0.3 mm 3 mps 732 mmHg 81%
    11:00 +11°C° 0.4 mm 3 mps 732 mmHg 79%
    12:00 +12°C° 0.4 mm 3 mps 732 mmHg 76%
    13:00 +12°C° 0.4 mm 3 mps 731 mmHg 73%
    14:00 +12°C° 0.4 mm 3 mps 731 mmHg 76%
    15:00 +12°C° 0.4 mm 2 mps 731 mmHg 79%
    16:00 +10°C° 0.4 mm 2 mps 731 mmHg 82%
    17:00 +10°C° 0.9 mm 2 mps 731 mmHg 84%
    18:00 +9°C° 0.9 mm 2 mps 731 mmHg 86%
    19:00 +9°C° 0.9 mm 2 mps 732 mmHg 87%
    20:00 +9°C° 1.2 mm 2 mps 732 mmHg 88%
    21:00 +8°C° 1.2 mm 2 mps 732 mmHg 88%
    22:00 +8°C° 1.2 mm 2 mps 732 mmHg 88%
    23:00 +8°C° 1.4 mm 2 mps 732 mmHg 89%

    16 Diciembre, Domingo

    Tiempo Temperatura Precipitaciones Viento Presión Humedad
    00:00 +8°C° 1.4 mm 2 mps 732 mmHg 90%
    01:00 +8°C° 1.4 mm 2 mps 732 mmHg 92%
    02:00 +8°C° 1.6 mm 2 mps 731 mmHg 93%
    03:00 +8°C° 1.6 mm 2 mps 731 mmHg 94%
    04:00 +7°C° 1.6 mm 2 mps 731 mmHg 95%
    05:00 +7°C° 1.3 mm 2 mps 731 mmHg 95%
    06:00 +7°C° 1.3 mm 2 mps 732 mmHg 95%
    07:00 +7°C° 1.3 mm 2 mps 732 mmHg 95%
    08:00 +7°C° 0.6 mm 2 mps 732 mmHg 93%
    09:00 +7°C° 0.6 mm 2 mps 732 mmHg 91%
    10:00 +7°C° 0.6 mm 2 mps 733 mmHg 89%
    11:00 +8°C° 0.3 mm 2 mps 733 mmHg 87%
    12:00 +8°C° 0.3 mm 2 mps 733 mmHg 85%
    13:00 +8°C° 0.3 mm 2 mps 733 mmHg 83%
    14:00 +8°C° 0.1 mm 2 mps 733 mmHg 84%
    15:00 +7°C° 0.1 mm 2 mps 734 mmHg 84%
    16:00 +7°C° 0.1 mm 2 mps 734 mmHg 85%
    17:00 +7°C° 0 mm 2 mps 734 mmHg 86%
    18:00 +7°C° 0 mm 1 mps 735 mmHg 86%
    19:00 +7°C° 0 mm 1 mps 736 mmHg 87%
    20:00 +6°C° 0 mm 1 mps 736 mmHg 87%
    21:00 +6°C° 0 mm 1 mps 736 mmHg 86%
    22:00 +6°C° 0 mm 1 mps 736 mmHg 86%
    23:00 +6°C° 0 mm 1 mps 736 mmHg 86%

    17 Diciembre, Lunes

    Tiempo Temperatura Precipitaciones Viento Presión Humedad
    00:00 +6°C° 0 mm 1 mps 736 mmHg 85%
    01:00 +5°C° 0 mm 1 mps 736 mmHg 85%
    02:00 +6°C° 0 mm 1 mps 736 mmHg 84%
    03:00 +6°C° 0 mm 1 mps 736 mmHg 84%
    04:00 +6°C° 0 mm 1 mps 736 mmHg 83%
    05:00 +6°C° 0 mm 1 mps 736 mmHg 83%
    06:00 +6°C° 0 mm 1 mps 736 mmHg 82%
    07:00 +7°C° 0 mm 1 mps 737 mmHg 82%
    08:00 +8°C° 0 mm 1 mps 737 mmHg 80%
    09:00 +9°C° 0 mm 1 mps 737 mmHg 78%
    10:00 +10°C° 0 mm 1 mps 737 mmHg 76%
    11:00 +10°C° 0 mm 1 mps 737 mmHg 73%
    12:00 +11°C° 0 mm 1 mps 737 mmHg 71%
    13:00 +11°C° 0 mm 1 mps 736 mmHg 68%
    14:00 +11°C° 0 mm 1 mps 736 mmHg 71%
    15:00 +10°C° 0 mm 1 mps 736 mmHg 74%
    16:00 +8°C° 0 mm 0 mps 736 mmHg 78%
    17:00 +7°C° 0.1 mm 0 mps 737 mmHg 78%
    18:00 +7°C° 0.1 mm 0 mps 737 mmHg 79%
    19:00 +7°C° 0.1 mm 0 mps 737 mmHg 80%
    20:00 +8°C° 0.3 mm 1 mps 737 mmHg 81%
    21:00 +8°C° 0.3 mm 1 mps 737 mmHg 82%
    22:00 +8°C° 0.3 mm 1 mps 737 mmHg 83%
    23:00 +8°C° 0 mm 1 mps 737 mmHg 83%

    18 Diciembre, Martes

    Tiempo Temperatura Precipitaciones Viento Presión Humedad
    00:00 +8°C° 0 mm 1 mps 737 mmHg 83%
    01:00 +8°C° 0 mm 1 mps 737 mmHg 83%
    02:00 +7°C° 0.2 mm 2 mps 737 mmHg 83%
    03:00 +7°C° 0.2 mm 2 mps 737 mmHg 84%
    04:00 +7°C° 0.2 mm 2 mps 736 mmHg 84%
    05:00 +6°C° 0.4 mm 2 mps 737 mmHg 85%
    06:00 +5°C° 0.4 mm 3 mps 737 mmHg 85%
    07:00 +5°C° 0.4 mm 3 mps 737 mmHg 86%
    08:00 +7°C° 0.2 mm 3 mps 737 mmHg 84%
    09:00 +7°C° 0.2 mm 3 mps 737 mmHg 82%
    10:00 +7°C° 0.2 mm 3 mps 738 mmHg 80%
    11:00 +7°C° 0.2 mm 3 mps 737 mmHg 79%
    12:00 +8°C° 0.2 mm 3 mps 737 mmHg 77%
    13:00 +8°C° 0.2 mm 3 mps 737 mmHg 75%
    14:00 +7°C° 0.1 mm 3 mps 737 mmHg 76%
    15:00 +7°C° 0.1 mm 3 mps 738 mmHg 77%
    16:00 +5°C° 0.1 mm 3 mps 738 mmHg 79%
    17:00 +4°C° 0 mm 3 mps 738 mmHg 80%
    18:00 +4°C° 0 mm 3 mps 739 mmHg 80%
    19:00 +3°C° 0 mm 3 mps 739 mmHg 81%
    20:00 +3°C° 0 mm 3 mps 740 mmHg 81%
    21:00 +2°C° 0 mm 3 mps 740 mmHg 80%
    22:00 +2°C° 0 mm 3 mps 741 mmHg 80%
    23:00 +2°C° 0 mm 3 mps 741 mmHg 80%
    Mostrar más